Temperature
20 18 18 18 18 19 19 19 18 18 19 18 18 17 17 17 17 17 18 18 18 19 19 19 19 19 18 18 18 18 18 17 17 17 17 16 16 16 16 15 15 15 15 15
18 18 19 19 19 19 19 18 18 18 19 19 18 17 17 17 17 17 17 18 18 19 19 19 19 19 19 18 18 18 18 17 17 17 17 16 16 16 16 15 15 15 15 15
19 19 20 20 19 19 19 18 18 18 18 18 18 17 17 17 17 17 17 18 18 18 19 19 19 19 19 18 18 18 18 17 17 17 16 16 16 16 15 15 15 15 15 15
19 19 20 20 20 19 18 19 19 19 18 16 18 16 16 16 16 16 16 17 17 18 18 19 19 19 19 19 18 18 18 17 17 17 16 16 16 16 16 15 15 15 15 14
19 19 20 20 20 19 19 19 18 18 17 16 16 16 15 15 16 16 15 16 17 17 18 18 19 19 19 18 18 18 18 17 17 17 16 16 16 16 15 15 15 15 15 14
19 19 19 20 20 19 18 18 17 15 15 16 16 16 15 15 16 16 16 16 17 17 17 18 18 19 18 18 18 18 17 17 17 17 16 16 16 16 16 15 15 15 15 14
18 19 19 20 19 19 18 16 16 16 15 15 16 15 15 16 15 15 15 16 16 17 17 17 18 18 18 18 18 18 17 17 17 16 16 16 16 16 16 15 15 15 15 15
17 17 19 19 19 18 17 17 16 16 15 15 15 15 15 16 16 16 16 16 16 16 17 17 17 17 17 17 17 17 17 17 16 16 16 16 16 16 15 15 15 15 15 15
17 17 18 19 19 18 17 16 16 15 15 15 15 15 15 16 15 15 15 15 15 16 16 17 17 17 17 17 17 17 17 17 16 16 16 16 16 15 15 15 15 15 14 14
17 17 18 18 18 18 17 15 14 14 15 15 15 15 15 15 15 14 14 14 15 15 16 16 16 16 17 17 17 16 16 16 16 16 16 16 15 15 15 15 15 15 14 14
16 16 17 17 18 17 16 16 14 13 14 14 14 15 15 14 14 14 14 14 14 15 15 16 16 16 16 16 16 16 16 16 16 16 15 15 15 15 15 15 15 14 14 14
15 14 15 16 17 17 17 16 14 15 14 13 13 14 15 14 14 14 14 14 14 15 15 15 15 15 15 15 15 15 15 15 15 15 15 15 15 15 14 14 14 14 14 14
15 14 15 15 16 16 16 16 15 13 12 12 13 14 14 13 14 14 14 14 14 14 14 14 15 15 15 15 15 15 15 15 15 15 15 15 14 14 14 14 14 14 14 14
15 13 14 15 15 15 16 16 14 14 13 12 13 14 14 14 13 13 14 14 14 14 14 14 14 14 14 14 14 14 14 14 14 14 14 14 14 14 14 14 14 14 13 13
14 14 14 14 15 15 16 16 15 14 14 13 14 13 14 13 13 13 14 14 14 14 14 14 14 14 14 14 14 14 14 14 14 14 14 14 14 14 14 14 13 13 13 13
12 14 14 15 15 15 15 15 14 14 14 13 14 13 13 13 13 13 13 13 13 13 13 14 14 14 14 14 14 14 14 14 14 13 13 13 13 13 13 13 13 13 13 13
12 13 13 13 13 14 14 14 14 14 14 13 13 13 12 12 12 13 13 13 13 13 13 13 13 13 13 13 13 13 13 13 13 13 13 13 13 13 13 13 13 13 12 12
11 11 11 12 13 14 14 14 14 14 14 13 13 13 12 12 13 13 13 13 13 13 13 13 13 13 13 13 13 13 13 13 13 13 13 12 12 12 12 12 12 12 12 12
10 11 10 11 12 13 13 14 13 13 13 13 12 12 12 12 12 12 13 13 13 13 13 13 13 13 13 13 13 13 13 12 12 12 12 12 12 12 12 12 12 12 12 12
9 10 10 10 12 13 14 14 14 14 13 13 12 11 11 11 10 11 13 13 13 13 12 12 12 12 12 12 12 12 12 12 12 12 12 12 11 11 11 11 11 11 11 11
11 10 10 10 11 11 12 13 14 13 13 13 13 12 11 11 12 13 13 13 12 12 12 12 12 12 12 12 12 12 12 12 11 11 11 11 11 11 11 11 11 11 10 10
10 10 9 9 11 12 13 12 12 13 14 14 13 13 13 13 13 13 13 12 12 12 12 12 12 11 12 11 11 11 11 11 11 11 11 11 11 11 10 10 10 10 10 10
9 10 9 10 11 12 12 13 14 14 14 14 14 14 13 13 13 12 12 12 12 12 11 11 11 11 11 11 11 11 11 11 10 10 10 10 10 10 10 10 10 10 9 9
9 9 8 9 10 11 12 13 13 14 14 14 14 13 13 13 13 12 12 12 12 11 11 11 11 11 11 10 10 10 10 10 10 10 10 10 10 10 9 9 9 9 9 9
9 8 8 8 9 11 12 13 13 13 13 13 13 13 13 13 12 12 12 12 11 11 11 11 10 10 10 10 10 10 10 10 10 10 9 9 9 9 9 9 9 9 9 9
7 8 9 9 10 10 12 13 13 13 13 13 13 12 12 12 12 12 11 11 11 10 10 10 10 10 10 9 9 9 9 9 9 9 9 9 9 9 9 8 8 8 8 8
Wind_Speed
3 4 2 5 6 5 3 2 3 5 3 2 4 5 5 2 3 4 5 6 7 8 7 4 4 4 5 5 6 6 6 5 5 3 3 2 1 1 1 0 2 3 4 5
4 2 6 4 3 3 3 2 3 4 1 2 2 4 4 2 3 5 6 7 8 7 5 5 5 5 6 6 6 6 7 6 6 4 3 2 2 1 1 0 1 2 4 5
4 4 1 3 2 2 3 4 4 4 2 2 1 5 4 2 1 1 2 4 5 8 8 7 7 6 6 7 8 7 7 6 6 4 3 3 3 2 1 0 1 1 3 4
3 3 0 2 1 4 3 4 4 3 1 2 1 3 5 3 3 3 3 3 4 5 5 6 6 6 7 8 7 6 6 6 6 6 5 5 4 3 3 2 1 1 2 3
2 1 1 1 2 4 4 0 2 2 3 1 2 1 6 4 4 5 4 4 4 3 3 4 5 6 5 5 5 5 5 5 5 6 6 6 4 3 1 1 1 1 1 2
3 1 2 3 1 2 3 5 5 5 4 1 2 2 4 3 4 4 4 3 3 2 1 2 2 2 2 2 3 4 5 4 4 6 6 6 6 4 3 2 3 2 1 1
4 3 2 1 3 3 5 5 4 4 3 4 2 2 5 4 3 3 4 3 2 0 1 0 1 1 2 2 3 4 5 4 4 5 5 5 6 6 6 4 4 3 2 2
1 4 3 0 3 3 2 6 5 3 4 4 2 3 4 2 2 2 1 1 1 1 1 0 1 2 2 3 3 4 5 4 4 5 5 4 4 4 3 4 3 4 4 3
4 4 4 2 1 6 4 2 4 5 2 1 4 4 4 1 3 4 4 4 2 1 0 1 1 0 1 2 3 4 4 4 4 5 5 4 4 3 3 3 3 3 3 3
5 3 4 2 4 4 4 7 5 4 3 3 4 4 4 4 4 3 3 2 3 2 1 1 0 0 0 1 2 2 3 4 4 4 5 4 4 4 3 3 3 3 3 2
4 3 3 2 2 2 3 4 4 4 4 4 3 6 3 4 3 3 3 2 2 2 2 2 1 0 0 1 2 2 2 2 2 3 3 3 3 2 2 3 3 3 3 3
3 4 1 4 3 2 4 5 6 4 3 4 3 6 3 2 2 2 3 2 2 2 1 1 1 1 1 1 1 1 2 2 2 2 2 2 2 2 2 2 3 3 3 3
4 5 2 5 4 2 1 2 3 5 4 4 4 6 2 2 2 2 2 2 2 2 1 1 1 1 1 1 1 1 2 2 2 2 2 2 1 2 2 3 2 2 3 3
5 4 6 8 7 4 3 2 3 5 4 5 7 7 6 4 3 3 3 2 1 1 1 1 1 1 2 1 1 2 2 2 2 2 2 2 2 2 2 2 2 2 2 3
4 3 4 5 5 3 4 5 4 6 7 7 8 8 8 6 5 4 3 2 1 1 1 1 2 2 2 1 2 2 2 2 2 3 3 3 2 2 1 1 1 1 2 2
3 3 2 2 2 3 4 5 5 5 5 5 4 7 5 4 2 2 2 2 1 2 2 2 2 2 2 2 2 2 2 2 3 3 3 2 2 1 1 1 1 1 1 2
2 4 3 3 3 2 5 6 7 5 5 6 7 8 3 2 4 4 4 3 3 3 2 2 3 3 3 3 3 3 3 2 3 3 2 2 2 2 2 2 1 2 2 2
5 5 3 1 1 5 7 2 4 4 4 5 4 4 4 5 4 2 2 3 3 3 3 3 3 3 3 2 2 1 1 2 3 2 2 1 2 2 2 1 2 2 2 2
5 6 4 3 3 6 6 3 4 4 5 4 4 3 2 0 2 2 2 2 3 3 3 3 3 2 1 1 1 2 1 2 2 2 2 2 2 2 2 2 3 2 2 2
4 4 5 4 4 6 6 3 2 4 5 4 4 4 2 4 1 4 3 2 1 1 1 1 1 1 0 1 1 2 2 1 2 3 3 2 2 2 3 3 3 2 2 3
3 3 4 4 5 7 6 2 3 3 7 3 4 5 5 5 5 4 2 1 1 1 1 1 0 0 0 0 2 2 1 2 3 2 1 1 1 2 2 2 2 2 2 2
6 5 6 5 5 8 3 4 5 6 2 2 4 4 5 3 2 1 1 1 1 1 1 1 1 1 1 1 2 1 1 3 2 1 1 1 1 1 1 1 1 1 2 2
6 7 6 8 7 4 3 5 4 3 3 3 4 4 4 3 2 2 2 2 1 1 0 0 0 1 1 1 1 1 2 2 1 0 1 1 1 1 1 1 1 1 1 1
4 2 3 4 6 5 4 3 2 2 3 3 3 3 4 4 3 3 2 2 1 1 1 0 1 1 2 1 0 1 1 1 0 0 1 1 1 1 1 1 1 1 2 2
5 4 3 4 6 5 4 3 3 1 0 0 1 2 4 4 3 4 3 3 2 2 1 1 1 1 2 1 1 1 1 1 1 1 1 1 1 1 1 1 2 2 3 3
6 7 7 8 7 5 7 5 3 3 3 3 2 2 2 4 4 4 3 3 2 2 1 1 1 2 2 1 1 1 1 1 1 0 1 1 2 1 1 2 3 3 3 4
Wind_Direction
50 79 196 216 199 192 181 200 256 264 243 178 225 255 273 230 199 221 218 215 214 223 231 215 196 181 173 169 170 175 164 160 145 134 132 128 138 118 73 91 130 148 146 142
50 264 236 209 178 168 188 229 271 293 309 178 237 275 278 223 212 215 217 219 221 222 221 211 196 186 187 186 187 187 180 173 175 169 155 145 136 132 133 27 118 161 160 159
188 243 219 149 152 166 215 201 223 240 355 36 26 330 328 312 318 318 258 237 233 221 218 212 201 198 193 197 197 194 189 183 182 162 125 92 76 60 56 18 229 210 177 166
236 275 92 116 179 160 250 234 201 198 120 302 65 289 306 314 325 302 283 264 249 245 227 214 205 202 203 208 199 189 184 183 180 165 163 163 169 183 209 205 211 216 189 181
257 253 130 191 244 178 214 57 120 132 147 29 12 176 296 327 308 293 282 270 263 255 224 214 212 210 209 201 190 185 174 180 180 179 178 175 179 189 183 172 190 209 217 192
261 266 186 210 251 141 124 70 57 52 75 344 260 176 288 283 272 294 298 278 267 271 242 220 214 189 182 167 169 167 166 183 184 182 181 184 188 184 176 189 199 210 220 213
339 330 327 122 74 40 75 84 30 3 11 262 269 177 251 266 278 271 284 287 276 271 68 63 136 158 157 157 176 173 171 183 186 182 186 193 193 186 192 197 202 206 210 219
158 293 288 252 162 168 155 137 157 201 230 280 327 233 247 270 320 337 339 342 22 58 66 164 201 180 171 170 171 172 178 186 185 184 194 194 186 189 203 200 197 205 212 216
170 256 292 266 176 136 128 146 160 135 155 275 284 285 296 327 357 12 19 25 9 345 312 297 330 143 157 170 184 185 181 183 190 192 189 192 191 193 202 202 194 202 215 214
157 234 300 308 70 45 126 138 101 120 156 260 289 279 268 289 312 342 348 342 323 302 275 275 320 315 120 155 167 170 182 191 191 186 189 192 195 200 199 191 204 206 208 203
140 165 311 23 134 180 84 95 104 117 151 165 260 273 236 222 229 246 267 283 304 303 260 246 262 303 94 79 111 138 168 161 169 179 185 176 182 181 177 193 213 210 202 191
131 128 239 271 272 203 159 157 144 151 215 180 193 263 290 229 232 235 269 300 325 326 307 289 279 36 56 67 103 156 170 173 188 178 161 167 171 160 172 201 216 205 204 202
135 118 82 340 340 6 111 152 147 134 132 166 188 257 311 349 342 322 300 305 320 327 345 11 20 353 272 269 258 190 177 195 192 161 154 144 143 166 200 215 216 203 207 208
121 127 170 203 223 215 234 207 162 143 168 209 222 243 276 286 291 299 293 286 287 307 328 355 315 284 285 274 263 218 206 195 177 160 159 172 190 199 213 212 204 203 206 207
110 166 211 232 236 215 225 229 201 195 199 205 233 231 250 249 246 258 262 276 335 341 334 320 301 282 282 286 284 245 218 192 171 163 179 207 214 211 201 204 208 201 204 219
92 161 178 263 253 242 247 246 221 217 210 222 245 255 252 253 237 237 235 230 254 277 277 289 297 294 273 263 269 250 222 196 159 167 198 212 201 198 210 218 206 201 225 231
133 136 138 254 306 359 268 234 209 211 208 190 219 241 237 247 237 229 224 220 235 250 263 271 276 273 264 254 247 239 216 181 159 177 196 197 200 205 222 230 204 208 223 218
150 138 147 183 67 235 245 243 192 199 235 213 222 235 217 226 236 226 215 218 237 247 255 267 271 276 282 265 247 222 177 161 165 179 205 203 199 217 224 215 226 226 211 205
164 145 140 151 216 268 283 246 182 189 254 223 212 237 248 93 33 314 290 234 225 233 243 250 254 252 265 282 238 159 150 156 167 193 214 223 210 209 214 225 237 229 207 217
93 114 130 149 195 239 252 247 196 130 267 243 191 207 174 117 150 269 273 245 248 266 273 267 281 300 39 333 122 132 153 166 213 230 223 221 214 213 219 230 237 232 221 233
111 116 157 179 220 258 258 250 118 170 249 237 185 187 171 188 215 238 226 218 225 278 300 312 29 53 293 19 117 135 155 245 258 257 242 230 227 232 233 238 231 223 229 236
181 177 188 168 201 250 235 138 180 222 244 195 186 183 184 210 230 200 184 190 195 340 350 19 67 350 343 76 122 136 265 277 287 285 266 260 254 253 261 227 243 223 205 221
200 194 191 194 215 246 223 214 229 191 206 216 195 194 181 196 221 213 207 209 219 215 258 345 100 9 358 41 138 184 274 293 314 351 270 258 252 250 249 221 225 220 206 223
253 181 176 245 263 264 264 262 274 226 224 223 200 185 179 198 206 206 209 216 227 244 233 225 91 30 330 327 249 230 281 305 64 239 281 299 288 280 286 248 227 213 221 237
228 180 192 250 272 300 289 260 245 239 233 197 210 194 189 183 201 207 214 223 226 230 229 197 189 233 279 301 307 304 308 75 64 340 318 320 312 284 286 284 253 240 235 224
210 190 189 226 225 211 251 254 232 213 225 213 198 227 220 194 202 208 215 224 218 217 222 221 235 246 261 270 285 301 312 121 117 352 315 313 308 300 293 295 311 294 273 279
Height
1504 1510 1514 1512 1511 1513 1515 1519 1521 1517 1512 1514 1516 1516 1513 1512 1512 1512 1513 1514 1515 1517 1519 1521 1523 1525 1527 1528 1530 1531 1532 1533 1534 1535 1535 1535 1536 1537 1537 1538 1538 1539 1539 1540
1510 1512 1507 1506 1508 1511 1514 1519 1520 1515 1511 1513 1517 1517 1512 1511 1511 1511 1511 1512 1513 1514 1517 1519 1521 1523 1525 1526 1528 1530 1531 1532 1533 1534 1535 1535 1536 1536 1537 1537 1538 1538 1538 1539
1509 1507 1503 1505 1508 1512 1514 1517 1517 1517 1513 1513 1516 1519 1515 1512 1511 1511 1511 1511 1512 1512 1514 1516 1518 1520 1522 1524 1526 1528 1529 1530 1532 1533 1534 1535 1535 1535 1536 1536 1537 1537 1537 1538
1507 1504 1503 1506 1508 1510 1516 1509 1511 1513 1520 1526 1522 1533 1520 1514 1512 1511 1510 1509 1509 1510 1511 1513 1515 1517 1519 1521 1524 1526 1527 1529 1530 1531 1532 1533 1533 1534 1534 1535 1535 1536 1536 1537
1507 1504 1505 1507 1506 1507 1510 1507 1510 1514 1520 1527 1526 1531 1527 1516 1515 1511 1509 1508 1508 1508 1509 1510 1512 1514 1517 1519 1521 1523 1525 1527 1528 1529 1531 1532 1532 1533 1533 1534 1534 1535 1535 1536
1504 1502 1502 1503 1502 1504 1506 1510 1515 1521 1526 1535 1529 1532 1530 1520 1515 1510 1508 1507 1506 1506 1507 1508 1510 1512 1514 1517 1519 1521 1522 1524 1526 1527 1528 1529 1530 1531 1532 1532 1532 1533 1534 1534
1508 1504 1501 1501 1504 1506 1509 1521 1535 1537 1542 1539 1527 1529 1527 1514 1511 1509 1507 1505 1505 1506 1506 1507 1508 1510 1512 1514 1516 1518 1520 1521 1523 1524 1526 1527 1528 1529 1530 1530 1531 1531 1532 1532
1517 1517 1505 1502 1504 1509 1512 1518 1536 1543 1544 1539 1528 1530 1520 1510 1509 1507 1506 1505 1504 1504 1505 1506 1507 1509 1510 1511 1513 1515 1516 1518 1520 1522 1523 1525 1526 1527 1528 1529 1529 1530 1530 1531
1517 1516 1503 1501 1501 1505 1513 1519 1519 1532 1535 1539 1534 1525 1515 1508 1507 1506 1505 1505 1504 1504 1505 1506 1507 1508 1509 1510 1511 1513 1514 1516 1517 1519 1520 1522 1524 1525 1526 1526 1527 1527 1528 1528
1508 1514 1506 1502 1502 1505 1508 1514 1525 1532 1540 1543 1534 1529 1523 1513 1510 1508 1507 1506 1505 1505 1505 1505 1506 1506 1507 1509 1510 1511 1512 1513 1514 1516 1517 1519 1521 1522 1523 1524 1524 1525 1525 1526
1506 1514 1512 1507 1508 1511 1513 1517 1523 1531 1532 1541 1542 1532 1512 1510 1509 1508 1507 1506 1505 1504 1504 1504 1504 1505 1506 1507 1508 1509 1510 1511 1512 1513 1515 1516 1517 1519 1519 1520 1521 1522 1523 1523
1507 1515 1519 1513 1506 1505 1507 1512 1520 1529 1533 1535 1538 1532 1508 1507 1506 1506 1505 1504 1504 1504 1504 1504 1504 1504 1504 1505 1505 1506 1507 1508 1510 1511 1512 1513 1514 1515 1516 1517 1518 1519 1520 1520
1506 1515 1524 1521 1517 1510 1509 1510 1513 1520 1529 1536 1536 1527 1507 1506 1504 1504 1504 1503 1503 1503 1503 1503 1502 1502 1503 1503 1503 1504 1504 1506 1507 1509 1510 1511 1512 1512 1513 1514 1515 1516 1517 1517
1502 1512 1519 1523 1518 1512 1511 1510 1512 1518 1527 1530 1526 1518 1509 1506 1505 1503 1503 1502 1502 1502 1502 1501 1501 1501 1501 1502 1502 1502 1502 1504 1505 1506 1507 1508 1509 1510 1510 1511 1512 1512 1513 1514
1502 1510 1510 1509 1507 1507 1507 1508 1510 1513 1515 1519 1515 1513 1506 1504 1503 1502 1501 1501 1501 1500 1500 1500 1500 1500 1500 1500 1500 1500 1501 1501 1502 1503 1504 1505 1506 1507 1508 1508 1509 1509 1510 1510
1504 1509 1509 1509 1506 1506 1507 1505 1506 1507 1508 1509 1508 1507 1501 1500 1500 1500 1500 1499 1499 1499 1499 1499 1498 1498 1498 1498 1498 1498 1499 1499 1500 1501 1501 1502 1503 1504 1505 1505 1505 1506 1506 1506
1506 1509 1513 1515 1510 1507 1511 1503 1503 1503 1502 1503 1506 1502 1498 1499 1498 1498 1497 1497 1497 1497 1497 1497 1497 1497 1496 1496 1496 1496 1497 1497 1497 1498 1499 1500 1500 1501 1501 1502 1502 1502 1502 1503
1505 1509 1515 1517 1514 1518 1505 1496 1496 1498 1497 1497 1496 1495 1495 1495 1495 1496 1496 1495 1495 1495 1495 1495 1495 1495 1495 1495 1495 1494 1495 1495 1495 1496 1496 1497 1497 1497 1498 1498 1498 1499 1499 1499
1501 1507 1515 1519 1517 1511 1501 1495 1495 1497 1497 1493 1494 1493 1493 1494 1494 1494 1494 1494 1494 1494 1494 1494 1494 1494 1493 1493 1493 1493 1493 1493 1493 1493 1494 1494 1494 1494 1494 1495 1495 1495 1495 1496
1502 1504 1513 1518 1515 1513 1499 1491 1490 1494 1497 1490 1490 1491 1492 1493 1497 1494 1492 1492 1492 1492 1492 1492 1492 1492 1491 1491 1491 1491 1491 1491 1491 1491 1491 1491 1491 1491 1491 1491 1491 1492 1492 1492
1506 1508 1512 1515 1513 1505 1493 1489 1491 1501 1496 1487 1487 1488 1490 1490 1491 1491 1490 1490 1490 1490 1491 1490 1490 1490 1489 1489 1489 1489 1489 1489 1489 1489 1489 1489 1489 1488 1488 1488 1488 1488 1488 1489
1502 1507 1510 1512 1512 1505 1488 1489 1492 1490 1485 1485 1485 1486 1487 1488 1488 1488 1489 1488 1489 1489 1489 1488 1488 1488 1488 1487 1487 1487 1487 1487 1487 1486 1486 1486 1486 1486 1485 1485 1485 1485 1485 1485
1497 1496 1497 1498 1496 1487 1485 1484 1484 1484 1484 1484 1484 1484 1485 1486 1486 1486 1487 1487 1487 1487 1487 1487 1486 1486 1486 1485 1485 1484 1484 1484 1484 1484 1484 1483 1483 1483 1483 1482 1482 1482 1482 1481
1492 1491 1493 1492 1487 1484 1483 1482 1482 1482 1482 1482 1482 1483 1483 1484 1484 1484 1485 1485 1485 1485 1485 1485 1484 1484 1483 1483 1483 1482 1482 1482 1482 1481 1481 1480 1480 1480 1480 1480 1479 1479 1478 1478
1488 1489 1490 1489 1484 1482 1480 1480 1480 1480 1481 1481 1481 1481 1482 1482 1482 1482 1483 1483 1483 1483 1483 1483 1482 1481 1481 1480 1480 1480 1480 1479 1479 1478 1478 1478 1477 1477 1476 1476 1476 1475 1475 1475
1482 1483 1485 1483 1479 1479 1477 1477 1478 1478 1478 1479 1479 1479 1480 1480 1480 1480 1480 1480 1480 1480 1480 1480 1479 1479 1478 1478 1478 1477 1477 1477 1476 1475 1475 1475 1474 1474 1473 1473 1472 1472 1472 1472